Retour au catalogue

KUIPER-00599

ActifCommunicationsLEO
NORAD 69283·PAYLOAD·🇺🇸 United States

Lancé May 29, 2026 depuis Vandenberg Space Force Base

Loading…

Prochains Passages (prochaines 24 heures)

TLE

FraisSource: CelesTrak SupGP

Époque: Sep 14, 2026, 15:58 UTC

1 69283C 26118S   26257.66571759 -.00012385  00000+0 -16214-2 0  2577
2 69283  51.9018 359.9082 0000312 142.3024 185.7359 14.79940277    11

Suivez KUIPER-00599 en temps réel avec AllMySat

Download on the App Store